Content
SEND FEEDBACK

Daily
Averages
Monthly
Summary
United States of America

MERIZO, GUAM


Home > North America > United States > Guam
Elevation: 10 feet     Latitude: 13 14N     Longitude: 144 39E

WEATHER
 
SELECT A DAY
Number of Records: 351,678;   Date Range: 1/1/95 - 10/21/14
 
SHARE

PRINT THIS DATA

[ ← Previous Day ]
WEATHER ALMANAC - MARCH 20, 2014
[ Next Day → ]
[ °C ]   °F
Weather ElementAverageHighLow
Temperature77.7 °F82.9 °F (1:58 pm)71.6 °F (5:36 am)
Dewpoint71.6 °F75.2 °F (11:49 am)66.2 °F (6:03 am)
Humidity81.3 %94 % (5:26 am)72 % (1:58 pm)
Barometer29.85 in29.89 in (11:23 am)29.77 in (3:58 pm)
Wind Speed14.7 mph20.7 mph (5:26 am)
Wind Gust23 mph (11:39 am)
Weather ElementAverage
Visibility9.1 mi
Wind DirectionENE (69.8 °)

Weather ElementTotal
Precipitation0.11 in
Cooling Degree Days12.3 (Base 65)
Growing Degree Days27.3 (Base 50)
Averaged from 53 records on March 20, 2014
WEATHER CONDITIONS BREAKOUT
WIND DIRECTION BREAKOUT
WEATHER BY HOUR - MARCH 20, 2014
[ °C ]   °F
Local TimeTemperatureDewpointHumidityBarometerVisibilityWind DirectionWind SpeedGust SpeedPrecipitationEventsConditions
1:58 AM77.9 °F72.7 °F84 %29.86 in10.0 miENE (60°)13.8 mphPartly Cloudy
2:58 AM76.6 °F72.9 °F88 %29.83 in10.0 miNE (50°)12.7 mphClear
3:58 AM75.2 °F72.1 °F90 %29.84 in10.0 miNE (40°)16.1 mphScattered Clouds
4:03 AM75.2 °F71.6 °F89 %29.87 in10.0 miNE (40°)13.8 mphMostly Cloudy
4:08 AM75.2 °F71.6 °F89 %29.87 in10.0 miNE (50°)15.0 mphScattered Clouds
4:18 AM75.2 °F71.6 °F89 %29.87 in10.0 miNE (50°)12.7 mphMostly Cloudy
4:43 AM77.0 °F71.6 °F83 %29.87 in10.0 miNE (50°)12.7 mphMostly Cloudy
4:58 AM76.3 °F72.0 °F86 %29.84 in10.0 miNE (40°)10.4 mphPartly Cloudy
5:11 AM77.0 °F71.6 °F83 %29.87 in10.0 miEast (80°)11.5 mphRainLight Rain
5:26 AM73.4 °F71.6 °F94 %29.88 in5.0 miEast (80°)20.7 mphRainLight Rain
5:36 AM71.6 °F68.0 °F88 %29.88 in4.0 miENE (70°)12.7 mphRainLight Rain
5:58 AM74.5 °F66.6 °F76 %29.86 in10.0 miENE (70°)10.4 mph18.4 mph0.03 inLight Drizzle
6:03 AM75.2 °F66.2 °F73 %29.88 in10.0 miEast (80°)11.5 mph18.4 mphLight Drizzle
6:04 AM75.2 °F66.2 °F73 %29.88 in10.0 miEast (80°)13.8 mph18.4 mphOvercast
6:58 AM76.3 °F71.1 °F84 %29.86 in10.0 miENE (70°)11.5 mph0.00 inScattered Clouds
7:58 AM77.4 °F71.2 °F81 %29.87 in10.0 miENE (70°)13.8 mphScattered Clouds
8:58 AM80.4 °F71.6 °F74 %29.88 in10.0 miEast (80°)13.8 mphClear
9:58 AM81.5 °F72.0 °F73 %29.88 in10.0 miEast (80°)12.7 mph21.9 mphClear
10:58 AM81.7 °F72.9 °F74 %29.87 in10.0 miEast (90°)16.1 mphScattered Clouds
11:23 AM82.4 °F73.4 °F74 %29.89 in10.0 miEast (80°)12.7 mphMostly Cloudy
11:28 AM80.6 °F73.4 °F79 %29.89 in10.0 miEast (80°)13.8 mphMostly Cloudy
11:39 AM80.6 °F73.4 °F79 %29.88 in9.0 miEast (80°)16.1 mph23.0 mphRainLight Rain
11:49 AM78.8 °F75.2 °F89 %29.88 in1.5 miENE (70°)15.0 mph21.9 mphRainRain
11:54 AM77.0 °F73.4 °F89 %29.88 in1.0 miEast (80°)12.7 mph21.9 mphRainLight Rain
11:58 AM77.7 °F74.1 °F89 %29.86 in1.0 miEast (80°)13.8 mph21.9 mph0.07 inRainLight Rain
12:03 PM78.8 °F75.2 °F89 %29.87 in5.0 miEast (80°)16.1 mphRainLight Rain
12:04 PM78.8 °F75.2 °F89 %29.87 in7.0 miENE (70°)15.0 mphMostly Cloudy
12:19 PM78.8 °F73.4 °F83 %29.87 in10.0 miEast (80°)19.6 mphMostly Cloudy
12:24 PM80.6 °F73.4 °F79 %29.86 in10.0 miEast (80°)17.3 mphMostly Cloudy
12:58 PM81.7 °F72.9 °F74 %29.82 in10.0 miEast (80°)16.1 mph23.0 mph0.00 inScattered Clouds
1:58 PM82.9 °F73.0 °F72 %29.81 in10.0 miENE (70°)17.3 mph0.01 inPartly Cloudy
2:58 PM81.5 °F72.0 °F73 %29.78 in10.0 miENE (70°)15.0 mphPartly Cloudy
3:58 PM81.3 °F72.1 °F74 %29.77 in10.0 miENE (60°)19.6 mphScattered Clouds
4:58 PM80.4 °F72.0 °F75 %29.77 in10.0 miENE (70°)17.3 mphPartly Cloudy
5:58 PM78.6 °F72.3 °F81 %29.78 in10.0 miENE (70°)16.1 mphScattered Clouds
6:23 PM77.0 °F71.6 °F83 %29.81 in10.0 miENE (70°)15.0 mphMostly Cloudy
6:28 PM77.0 °F71.6 °F83 %29.81 in10.0 miENE (70°)16.1 mphScattered Clouds
6:58 PM77.4 °F72.0 °F83 %29.79 in10.0 miENE (70°)13.8 mphScattered Clouds
7:03 PM77.0 °F71.6 °F83 %29.82 in10.0 miENE (60°)13.8 mphMostly Cloudy
7:58 PM77.5 °F71.1 °F80 %29.81 in10.0 miEast (80°)13.8 mphMostly Cloudy
8:03 PM77.0 °F71.6 °F83 %29.85 in10.0 miENE (70°)16.1 mphScattered Clouds
8:08 PM77.0 °F71.6 °F83 %29.85 in10.0 miENE (60°)13.8 mphScattered Clouds
8:13 PM77.0 °F71.6 °F83 %29.85 in10.0 miENE (70°)15.0 mphMostly Cloudy
8:48 PM77.0 °F69.8 °F78 %29.86 in10.0 miENE (60°)15.0 mphScattered Clouds
8:58 PM77.4 °F70.2 °F78 %29.83 in10.0 miENE (70°)13.8 mphPartly Cloudy
9:28 PM77.0 °F69.8 °F78 %29.87 in10.0 miENE (70°)17.3 mphMostly Cloudy
9:33 PM77.0 °F69.8 °F78 %29.87 in10.0 miEast (80°)16.1 mphMostly Cloudy
9:43 PM77.0 °F71.6 °F83 %29.87 in10.0 miENE (70°)15.0 mphMostly Cloudy
9:48 PM77.0 °F69.8 °F78 %29.87 in10.0 miENE (70°)15.0 mphScattered Clouds
9:58 PM77.4 °F69.8 °F77 %29.86 in10.0 miENE (70°)16.1 mphMostly Cloudy
10:03 PM77.0 °F69.8 °F78 %29.87 in10.0 miEast (80°)15.0 mphScattered Clouds
10:58 PM77.2 °F70.7 °F80 %29.84 in10.0 miENE (70°)16.1 mphScattered Clouds
11:58 PM75.9 °F70.0 °F82 %29.83 in10.0 miEast (80°)12.7 mphPartly Cloudy
Hourly data recorded from PGUA, located miles away from Merizo, Guam







STORIES FROM OUR PARTNERS